Location: Brownlee
(50.7397°N, 106.0159°W)
Time: 03:55:40
(UTC+00:00)

Envisat - Pass Details

Date: 11 December 2022
Orbit: 763 x 765 km, 98.2° (Epoch: 08 February)

Event Time Altitude Azimuth Distance (km) Brightness Sun altitude
Rises 12:39:21 0° 7° (N) 3,247 6.2 -20.4°
Reaches altitude 10° 12:41:56 10° 356° (N) 2,316 5.3 -20.0°
Enters shadow 12:43:53 20° 338° (NNW) 1,740 4.5 -19.7°
